Погода в Калачинске

Погода в Калачинске : погода сейчас, прогноз погоды и архив. Всё, что Вы хотите узнать о погоде в Калачинске!

Хотите узнать прогноз погоды в Калачинске? Тогда Вам сюда: Погода в Калачинске

Поиск расширенной информации на нашем сайте:

Другие новости

Новости СМИ2

Главная страница сайта

Новости сайта

03.07.2017

Напоминаем, что на нашем специализированном сайте Метеоцентр.Азия вы можете получить высокодетализированные автоматические прогнозы погоды по пунктам России, СНГ и мира в авиационном формате (включающие направление и скорость ветра, видимость, явления погоды, количество и форму облачности, нижнюю и верхнюю границу облачности).


Погода в Калачинске - сегодня

Время (UTC), дата Ветер
(°,м/с) 
Видим.   Явления Облачность Т
(°С)
Тd
(°С)
f(%) Тe
(°С)
Pmin
(гПа)
dP
(гПа)
Po
(мм)
O2
(г/м3)
Тmin Tmax R s Состояние
почвы
18 21.02.18 160 (Ю) 10 км    ясно 
-8.8 -13.5 69 -10  1010.3  -1.7  747  312           
21 21.02.18 200 (Ю) 4000 м  слаб. снег  10/0 средняя 
[As op]
-8.9 -11.7 80 -9  1009.8  -0.5  747  312           
00 22.02.18 260 (З) 10 км  {снег}  ясно 
-11.2 -14.1 79 -17  1012  2.1  748  316           
03 22.02.18 260 (З) 20000 м    10/0 верхняя 
[Ci fib]
-13.3 -17.1 73 -20  1015.3  3.1  751  319  -13.3    0.5  35  равномерный
сухой снег
100% 
09 22.02.18 240 (ЮЗ) 20000 м  позёмок  10/0 верхняя 
[Ci fib]
-8.2 -14.3 61 -13  1019.2  1.5  754  314           
12 22.02.18 210 (ЮЗ) 20000 м  позёмок  10/0 верхняя 
[Ci fib]
-10.3 -16.4 61 -13  1020.3  1.5  754  317           
15 22.02.18 200 (Ю) 10 км    ясно 
-13.5 -17.8 70 -16  1021  0.4  755  321    -7.8       
18 22.02.18 190 (Ю) 10 км    ясно 
-13.9 -17.5 74 -16  1020.3  -0.7  754  322           
21 22.02.18 210 (ЮЗ) 10 км    ясно 
-11.9 -16 72 -15  1019.3  -0.9  754  319           
00 23.02.18 250 (З) 4000 м  слаб. снег  10/0 средняя 
[As op]
-13.6 -17.7 71 -20  1020.1  0.7  754  321           
03 23.02.18 230 (ЮЗ) 4000 м  слаб. снег  10/0 средняя 
[As op]
-17.4 -21 73 -21  1021.4  755  326  -18.1    0.2  35  равномерный
сухой снег
100% 
06 23.02.18 230 (ЮЗ) 20000 м  {снег}  10/0 верхняя 
[Ci fib]
-13.8 -18.6 67 -18  1021.9  0.7  755  322           
09 23.02.18 210 (ЮЗ) 20000 м    10/0 верхняя 
[Ci fib]
-12 -18.5 58 -14  1022.1  0.3  756  320           
12 23.02.18 210 (ЮЗ) 20000 м    10/0 верхняя 
[Ci fib]
-13.7 -19.7 61 -16  1022.3  0.1  756  322           
15 23.02.18 200 (Ю) 10 км    10/0 средняя, верхняя 
[Ac trans|Ci fib]
-17.4 -21.4 71 -20  1022.1  -0.4  755  327    -11.8  0.1     
18 23.02.18 210 (ЮЗ) 10 км    10/0 верхняя 
[Ci fib]
-18.7 -22.6 71 -21  1022.2  755  328           
21 23.02.18 220 (ЮЗ) 10 км    10/0 верхняя 
[Ci fib]
-20.6 -24.8 69 -21  1022.1  -0.3  755  331           
00 24.02.18 200 (Ю) 10 км    10/0 верхняя 
[Ci fib]
-21.2 -25.6 68 -22  1021.8  -0.3  755  332           
03 24.02.18 230 (ЮЗ) 2800 м  дым [диам. изморози 8 мм]  10/0 средняя 
[As op]
-23.4 -28.3 64 -24  1022.5  0.6  755  335  -24.5      35  равномерный
сухой снег
100% 
09 24.02.18 230 (ЮЗ) 6000 м  дым{снег}  10/0 верхняя 
[Ci fib]
-16.4 -21.6 64 -20  1023.5  0.4  756  326           
12 24.02.18 210 (ЮЗ) 4000 м  дым{снег}  10/0 верхняя 
[Ci fib]
-16.9 -23.2 58 -19  1024.6  1.1  757  327           
15 24.02.18 220 (ЮЗ) 10 км    ясно 
-20.3 -24.9 67 -25  1026.3  1.4  758  332    -15.7  0.0     
18 24.02.18 210 (ЮЗ) 10 км    ясно 
-21.5 -25.8 68 -24  1027.6  1.3  759  334           
21 24.02.18 210 (ЮЗ) 10 км    ясно 
-23 -27.6 66 -28  1028.8  1.1  760  336           
00 25.02.18 210 (ЮЗ) 10 км  [диам. изморози 3 мм]  ясно 
-24.6 -29.5 64 -28  1030.1  1.2  761  339           
Время (UTC), дата Ветер
(°,м/с) 
Видим.   Явления Облачность Т
(°С)
Тd
(°С)
f(%) Тe
(°С)
Pmin
(гПа)
dP
(гПа)
Po
(мм)
O2
(г/м3)
Тmin Tmax R s Состояние
почвы

Для получения пояснительной информации подведите курсор к названию столбца.

ПОГОДА в Калачинске - архив

Всё, что Вы хотите узнать о погоде в Калачинске - удобно и подробно!

Выберите нужную дату (начиная с 1 января 2015* года) и нажмите кнопку "Найти".
Будут отображены архивные сводки погоды по пункту Калачинск, начиная с указанной даты.


Отображать данные в формате CSV (для использования в таблицах Excel)


Внимание! Наш архив погоды предназначен исключительно для личного некоммерческого использования в познавательных целях. Если Вам необходимы официальные справки о состоянии погоды (для производственных, юридических, коммерческих и т.п. целей), обращайтесь в органы Росгидромета.

*Примечание: данная дата относится к архиву по метеостанциям СССР (Россия, СНГ, Балтия).
Архив по метеостанциям Зарубежной Европы и Азии (кроме Китая) хранится 10 дней, по другим регионам земного шара (Китай, Африка, Америка, Австралия, Океания) - 1 день.

Калачинск - район местоположения метеостанции


Название, широта, долгота, высота метеостанции:
Калачинск 55°ш. 74.6°д. 110 м над ур. моря [Российская Федерация]

Дополнительная информация

В oтличие oт бoльшинства пoгoдных сайтoв мы публикуем пoдрoбную метеoинфoрмацию в детальнoм прoфессиoнальнoм фoрмате.

Характеристики температуры и влажнoсти вoздуха измеряются на высoте 2 м в тени вдали oт зданий и деревьев.
Скoрoсть ветра измеряется на высoте 10 м (на урoвне рoста челoвека скoрoсть ветра ниже в 1.5-2 раза). Если метеoстанция нахoдится в гoрoде или в лесу, тo скoрoсть ветра занижена на 2-4 м/с пo сравнению с oткрытым местoм. Скoрoсть ветра над акватoриями крупных рек и oзёр, а также на вершинах хoлмoв на 2-5 м/с выше, чем в oбычных услoвиях.
Атмoсфернoе давление в разных тoчках местнoсти мoжет значительнo oтличаться oт давления на метеoстанции, в зависимoсти oт услoвий рельефа (при пoдъёме на 10 м давление пoнижается примернo на 1 мм рт.ст.).